Time,TemperatureF,DewpointF,PressureIn,WindDirection,WindDirectionDegrees,WindSpeedMPH,WindSpeedGustMPH,Humidity,HourlyPrecipIn,Conditions,Clouds,dailyrainin,SoftwareType,DateUTC
2013-06-17 00:02:00,62.0,49.0,-100.00,NE,56,1.0,5.0,62,-99.99,,,-99.99,,2013-06-17 07:02:00,
2013-06-17 00:12:00,62.0,49.0,-100.00,NE,56,1.0,5.0,62,-99.99,,,-99.99,,2013-06-17 07:12:00,
2013-06-17 01:01:00,62.0,48.0,-100.00,ESE,109,1.0,5.0,60,-99.99,,,-99.99,,2013-06-17 08:01:00,
2013-06-17 01:10:00,60.0,49.0,-100.00,East,89,1.0,3.0,66,-99.99,,,-99.99,,2013-06-17 08:10:00,
2013-06-17 02:20:00,59.0,48.0,-100.00,ENE,71,2.0,7.0,66,-99.99,,,-99.99,,2013-06-17 09:20:00,
2013-06-17 03:02:00,59.0,48.0,-100.00,ENE,71,2.0,7.0,66,-99.99,,,-99.99,,2013-06-17 10:02:00,
2013-06-17 03:10:00,59.0,48.0,-100.00,ENE,69,1.0,6.0,66,-99.99,,,-99.99,,2013-06-17 10:10:00,
2013-06-17 03:12:00,59.0,48.0,-100.00,ENE,71,2.0,7.0,66,-99.99,,,-99.99,,2013-06-17 10:12:00,
2013-06-17 04:02:00,59.0,48.0,-100.00,ENE,69,1.0,6.0,66,-99.99,,,-99.99,,2013-06-17 11:02:00,
2013-06-17 05:02:00,57.0,48.0,-100.00,WNW,285,0.0,2.0,71,-99.99,,,-99.99,,2013-06-17 12:02:00,
2013-06-17 05:10:00,56.0,48.0,-100.00,East,93,1.0,3.0,74,-99.99,,,-99.99,,2013-06-17 12:10:00,
2013-06-17 05:11:00,57.0,48.0,-100.00,WNW,285,0.0,2.0,71,-99.99,,,-99.99,,2013-06-17 12:11:00,
2013-06-17 07:02:00,55.0,49.0,-100.00,ENE,72,1.0,2.0,80,-99.99,,,-99.99,,2013-06-17 14:02:00,
2013-06-17 07:11:00,55.0,49.0,-100.00,ENE,72,1.0,2.0,80,-99.99,,,-99.99,,2013-06-17 14:11:00,
2013-06-17 08:01:00,55.0,49.0,-100.00,NNE,30,1.0,3.0,80,-99.99,,,-99.99,,2013-06-17 15:01:00,
2013-06-17 09:02:00,58.0,49.0,-100.00,West,270,3.0,5.0,71,-99.99,,,-99.99,,2013-06-17 16:02:00,
2013-06-17 09:11:00,58.0,49.0,-100.00,West,270,3.0,5.0,71,-99.99,,,-99.99,,2013-06-17 16:11:00,
2013-06-17 10:02:00,64.0,49.0,-100.00,South,191,1.0,3.0,58,-99.99,,,-99.99,,2013-06-17 17:02:00,
2013-06-17 11:02:00,69.0,42.0,-100.00,South,169,2.0,9.0,37,-99.99,,,-99.99,,2013-06-17 18:02:00,
2013-06-17 11:12:00,69.0,42.0,-100.00,South,169,2.0,9.0,37,-99.99,,,-99.99,,2013-06-17 18:12:00,
2013-06-17 12:02:00,71.0,42.0,-100.00,SSE,157,3.0,9.0,35,-99.99,,,-99.99,,2013-06-17 19:02:00,
2013-06-17 13:02:00,71.0,44.0,-100.00,East,95,1.0,2.0,37,-99.99,,,-99.99,,2013-06-17 20:02:00,
2013-06-17 13:10:00,74.0,43.0,-100.00,ENE,76,3.0,7.0,32,-99.99,,,-99.99,,2013-06-17 20:10:00,
2013-06-17 13:11:00,71.0,44.0,-100.00,East,95,1.0,2.0,37,-99.99,,,-99.99,,2013-06-17 20:11:00,
2013-06-17 14:01:00,74.0,43.0,-100.00,ENE,76,3.0,7.0,32,-99.99,,,-99.99,,2013-06-17 21:01:00,
2013-06-17 15:10:00,73.0,42.0,-100.00,ESE,106,2.0,7.0,32,-99.99,,,-99.99,,2013-06-17 22:10:00,
2013-06-17 15:11:00,74.0,42.0,-100.00,SE,136,5.0,10.0,31,-99.99,,,-99.99,,2013-06-17 22:11:00,
2013-06-17 16:00:00,73.0,41.0,-100.00,ESE,119,3.0,9.0,31,-99.99,,,-99.99,,2013-06-17 23:00:00,
2013-06-17 16:02:00,73.0,42.0,-100.00,ESE,106,2.0,7.0,32,-99.99,,,-99.99,,2013-06-17 23:02:00,
2013-06-17 17:10:00,72.0,41.0,-100.00,ENE,76,1.0,6.0,32,-99.99,,,-99.99,,2013-06-18 00:10:00,
2013-06-17 18:00:00,68.0,48.0,-100.00,North,-999,0.0,0.0,48,-99.99,,,-99.99,,2013-06-18 01:00:00,